DW1762 Weather Reports


time (UTC)temp
F
wind
direction
speed
knots
gust
knots
rain 1hr
in
rain 24hr
in
rain mn
in
humidity
%
barometer
mb
20260510105204 52 339 0.0 0.9 0.00 0.00 0.00 92 1015.8
20260510104803 52 349 0.0 0.9 0.00 0.00 0.00 92 1015.8
20260510104404 52 24 0.0 0.9 0.00 0.00 0.00 92 1015.7
20260510104004 53 24 0.0 0.9 0.00 0.00 0.00 91 1015.6
20260510103602 53 0 0.0 0.0 0.00 0.00 0.00 91 1015.7
20260510103201 53 0 0.0 0.0 0.00 0.00 0.00 91 1015.6
20260510101601 52 0 0.0 0.0 0.00 0.00 0.00 92 1015.2
20260510101202 52 0 0.0 0.0 0.00 0.00 0.00 92 1015.2
20260510100802 52 0 0.0 0.0 0.00 0.00 0.00 91 1015.2
20260510100401 52 0 0.0 0.0 0.00 0.00 0.00 90 1015.1
20260510100002 53 0 0.0 0.0 0.00 0.00 0.00 90 1015.0
20260510095602 53 0 0.0 0.0 0.00 0.00 0.00 90 1014.9
20260510095201 53 0 0.0 0.0 0.00 0.00 0.00 90 1014.9
20260510094801 53 0 0.0 0.0 0.00 0.00 0.00 91 1014.9
20260510094402 53 0 0.0 0.0 0.00 0.00 0.00 91 1014.9
20260510094001 53 0 0.0 0.0 0.00 0.00 0.00 91 1014.9
20260510093601 53 60 0.0 0.9 0.00 0.00 0.00 90 1014.9
20260510093202 53 60 0.0 0.9 0.00 0.00 0.00 89 1014.8
20260510092801 54 61 0.0 0.9 0.00 0.00 0.00 89 1014.7
20260510092401 54 0 0.0 0.0 0.00 0.00 0.00 90 1014.8
20260510092002 54 0 0.0 0.0 0.00 0.00 0.00 90 1014.7
20260510091602 54 0 0.0 0.0 0.00 0.00 0.00 90 1014.7
20260510091201 54 0 0.0 0.0 0.00 0.00 0.00 89 1014.8
20260510090802 54 0 0.0 0.0 0.00 0.00 0.00 89 1014.8
20260510090002 54 0 0.0 0.0 0.00 0.00 0.00 90 1014.9
20260510085602 54 0 0.0 0.0 0.00 0.00 0.00 90 1014.9
20260510084801 53 0 0.0 0.0 0.00 0.00 0.00 91 1014.9
20260510084402 53 0 0.0 0.0 0.00 0.00 0.00 91 1014.9
20260510084002 53 0 0.0 0.0 0.00 0.00 0.00 90 1014.9
20260510083601 53 0 0.0 0.0 0.00 0.00 0.00 91 1014.8
20260510083202 52 0 0.0 0.0 0.00 0.00 0.00 91 1014.8
20260510082802 52 0 0.0 0.0 0.00 0.00 0.00 91 1014.8
20260510082402 52 1 0.0 0.9 0.00 0.00 0.00 91 1014.9
20260510082002 52 358 0.0 1.7 0.00 0.00 0.00 91 1014.9
20260510081601 52 335 0.9 1.7 0.00 0.00 0.00 91 1015.0
20260510081202 52 321 0.9 1.7 0.00 0.00 0.00 92 1014.9
20260510080802 52 327 0.9 1.7 0.00 0.00 0.00 93 1014.7
20260510080402 51 341 0.0 0.9 0.00 0.00 0.00 92 1014.5
20260510075602 52 318 0.9 0.9 0.00 0.00 0.00 90 1014.6
20260510075201 52 317 0.9 0.9 0.00 0.00 0.00 90 1014.3
20260510074802 53 317 0.9 0.9 0.00 0.00 0.00 90 1014.2
20260510074402 53 317 0.0 0.9 0.00 0.00 0.00 89 1014.2
20260510074002 53 0 0.0 0.0 0.00 0.00 0.00 89 1014.1
20260510073602 53 0 0.0 0.0 0.00 0.00 0.00 89 1014.0
20260510072402 53 0 0.0 0.0 0.00 0.00 0.00 89 1013.9
20260510071602 53 0 0.0 0.0 0.00 0.00 0.00 89 1014.0
20260510071202 53 316 0.0 0.9 0.00 0.00 0.00 89 1014.1
20260510070802 53 318 0.9 0.9 0.00 0.00 0.00 90 1014.1
20260510070402 53 322 0.0 0.9 0.00 0.00 0.00 90 1014.1
20260510070002 53 330 0.0 0.9 0.00 0.00 0.00 90 1014.1
20260510065602 53 336 0.0 0.9 0.00 0.00 0.00 90 1014.2
20260510065203 53 336 0.9 0.9 0.00 0.00 0.00 90 1014.2
20260510064802 53 337 0.9 0.9 0.00 0.00 0.00 90 1014.2
20260510064402 53 339 0.9 0.9 0.00 0.00 0.00 89 1014.1
20260510064003 54 341 0.0 0.9 0.00 0.00 0.00 89 1014.1
20260510063602 54 342 0.0 0.9 0.00 0.00 0.00 89 1014.1
20260510063202 54 0 0.0 0.0 0.00 0.00 0.00 89 1014.1
20260510062402 54 343 0.9 0.9 0.00 0.00 0.00 88 1014.2
20260510062002 54 343 0.9 0.9 0.00 0.00 0.00 88 1014.2
20260510061602 55 343 0.9 0.9 0.00 0.00 0.00 86 1014.3
20260510061202 55 343 0.0 0.9 0.00 0.00 0.00 85 1014.3
20260510060802 56 343 0.0 0.9 0.00 0.00 0.00 85 1014.3
20260510060002 55 0 0.0 0.0 0.00 0.00 0.00 85 1014.3
20260510055602 55 0 0.0 0.0 0.00 0.00 0.00 87 1014.4
20260510055202 55 0 0.0 0.0 0.00 0.00 0.00 87 1014.3
20260510054802 55 0 0.0 0.0 0.00 0.00 0.00 86 1014.4
20260510054402 55 0 0.0 0.0 0.00 0.00 0.00 86 1014.4
20260510054003 55 0 0.0 0.0 0.00 0.00 0.00 86 1014.3
20260510053602 55 0 0.0 0.0 0.00 0.00 0.00 87 1014.2
20260510053202 55 0 0.0 0.0 0.00 0.00 0.00 87 1014.2
20260510052802 55 0 0.0 0.0 0.00 0.00 0.00 87 1014.2
20260510052402 56 0 0.0 0.0 0.00 0.00 0.00 87 1014.2
20260510051603 56 343 0.0 0.9 0.00 0.00 0.00 86 1014.1
20260510051202 56 343 0.0 0.9 0.00 0.00 0.00 87 1014.0
20260510050802 56 343 0.0 0.9 0.00 0.00 0.00 86 1014.0
20260510050403 56 342 0.0 0.9 0.00 0.00 0.00 86 1014.2
20260510050004 56 0 0.0 0.0 0.00 0.00 0.00 86 1014.3
20260510045602 57 0 0.0 0.0 0.00 0.00 0.00 85 1014.1
20260510045203 57 0 0.0 0.0 0.00 0.00 0.00 84 1014.1
20260510044802 57 0 0.0 0.0 0.00 0.00 0.00 85 1014.0
20260510044402 57 0 0.0 0.0 0.00 0.00 0.00 85 1013.9
20260510043602 58 110 0.9 0.9 0.00 0.00 0.00 82 1013.8
20260510042802 60 112 0.0 0.9 0.00 0.00 0.00 76 1013.7
20260510042003 60 0 0.0 0.0 0.00 0.00 0.00 73 1013.7
20260510041602 60 0 0.0 0.0 0.00 0.00 0.00 73 1013.7
20260510041202 60 0 0.0 0.0 0.00 0.00 0.00 73 1013.6
20260510040802 60 0 0.0 0.0 0.00 0.00 0.00 73 1013.7
20260510040402 60 0 0.0 0.0 0.00 0.00 0.00 76 1013.7
20260510035603 59 112 0.0 0.9 0.00 0.00 0.00 76 1013.7
20260510035202 59 112 0.0 1.7 0.00 0.00 0.00 81 1013.7
20260510034802 60 112 0.0 1.7 0.00 0.00 0.00 80 1013.7
20260510034402 60 0 0.0 0.0 0.00 0.00 0.00 80 1013.5
20260510034002 60 0 0.0 0.0 0.00 0.00 0.00 79 1013.5
20260510033202 60 0 0.0 0.0 0.00 0.00 0.00 78 1013.3
20260510032803 60 0 0.0 0.0 0.00 0.00 0.00 78 1013.4
20260510032402 61 0 0.0 0.0 0.00 0.00 0.00 78 1013.3
20260510032003 61 232 0.0 7.8 0.00 0.00 0.00 77 1013.3
20260510031603 61 232 0.0 7.8 0.00 0.00 0.00 77 1013.3
20260510031202 61 232 0.0 7.8 0.00 0.00 0.00 77 1013.2
20260510024403 63 149 0.9 0.9 0.00 0.00 0.00 74 1012.7
20260510024003 64 139 0.9 0.9 0.00 0.00 0.00 73 1012.6
20260510023603 64 139 0.0 0.9 0.00 0.00 0.00 72 1012.6
20260510023202 65 139 0.0 0.9 0.00 0.00 0.00 71 1012.5
20260510022002 66 0 0.0 0.0 0.00 0.00 0.00 61 1012.3
20260510021602 66 0 0.0 0.0 0.00 0.00 0.00 60 1012.2
20260510021202 67 0 0.0 0.0 0.00 0.00 0.00 61 1012.2
20260510020802 67 0 0.0 0.0 0.00 0.00 0.00 59 1012.1
20260510020402 68 0 0.0 0.0 0.00 0.00 0.00 59 1012.0
20260510020006 68 0 0.0 0.0 0.00 0.00 0.00 57 1011.9
20260510015603 69 0 0.0 0.0 0.00 0.00 0.00 56 1012.0
20260510015203 69 0 0.0 0.0 0.00 0.00 0.00 55 1011.9
20260510014403 70 0 0.0 0.0 0.00 0.00 0.00 53 1011.8
20260510013603 70 0 0.0 0.0 0.00 0.00 0.00 52 1011.7
20260510013203 70 0 0.0 0.0 0.00 0.00 0.00 53 1011.6
20260510012402 71 0 0.0 0.0 0.00 0.00 0.00 51 1011.6
20260510012002 71 0 0.0 0.0 0.00 0.00 0.00 51 1011.6
20260510011602 72 0 0.0 0.0 0.00 0.00 0.00 51 1011.6
20260510011202 72 0 0.0 0.0 0.00 0.00 0.00 49 1011.6
20260510010803 72 0 0.0 0.0 0.00 0.00 0.00 49 1011.5
20260510010403 73 0 0.0 0.0 0.00 0.00 0.00 49 1011.5
20260510010002 73 0 0.0 0.0 0.00 0.00 0.00 48 1011.5
20260510005602 74 0 0.0 0.0 0.00 0.00 0.00 48 1011.4
20260510005203 74 0 0.0 0.0 0.00 0.00 0.00 47 1011.4
20260510004803 75 0 0.0 0.0 0.00 0.00 0.00 46 1011.3
20260510004403 76 0 0.0 0.0 0.00 0.00 0.00 45 1011.2
20260510004004 76 0 0.0 0.0 0.00 0.00 0.00 45 1011.2
20260510003603 77 0 0.0 0.0 0.00 0.00 0.00 44 1011.1
20260510003203 78 0 0.0 0.0 0.00 0.00 0.00 43 1011.2
20260510002802 79 0 0.0 0.0 0.00 0.00 0.00 42 1011.1
20260510002402 80 132 0.0 0.9 0.00 0.00 0.00 43 1011.2
20260510002003 80 136 0.0 0.9 0.00 0.00 0.00 41 1011.1
20260510001603 81 137 0.0 0.9 0.00 0.00 0.00 40 1011.1
20260510001203 81 131 0.0 0.9 0.00 0.00 0.00 40 1011.0
20260510000804 81 132 0.0 0.9 0.00 0.00 0.00 39 1011.1
20260510000403 81 137 0.0 1.7 0.00 0.00 0.00 39 1011.1
20260510000003 82 143 0.9 1.7 0.00 0.00 0.00 41 1011.0
20260509235602 81 140 0.9 3.5 0.00 0.00 0.00 40 1011.0
20260509235203 82 146 0.0 3.5 0.00 0.00 0.00 38 1011.0
20260509234804 82 146 0.0 2.6 0.00 0.00 0.00 40 1011.1
20260509234403 82 136 0.9 2.6 0.00 0.00 0.00 41 1011.1
20260509234003 82 146 0.9 2.6 0.00 0.00 0.00 39 1011.1
20260509233603 81 176 0.9 5.2 0.00 0.00 0.00 38 1010.9
20260509233203 81 189 1.7 6.1 0.00 0.00 0.00 39 1011.0
20260509232803 81 179 1.7 6.1 0.00 0.00 0.00 39 1010.9
20260509232403 81 176 0.9 6.1 0.00 0.00 0.00 38 1010.9
20260509232003 82 168 0.9 5.2 0.00 0.00 0.00 38 1010.9
20260509231602 82 178 0.0 3.5 0.00 0.00 0.00 39 1010.9
20260509231202 83 184 0.0 3.5 0.00 0.00 0.00 40 1010.9
20260509230805 84 157 0.9 3.5 0.00 0.00 0.00 39 1010.9
20260509230004 83 134 0.9 2.6 0.00 0.00 0.00 39 1011.0
20260509225603 83 131 1.7 3.5 0.00 0.00 0.00 39 1011.0
20260509225203 83 130 1.7 3.5 0.00 0.00 0.00 39 1010.9
20260509224803 83 132 0.9 2.6 0.00 0.00 0.00 38 1011.0
20260509224403 83 129 0.9 2.6 0.00 0.00 0.00 39 1010.9
20260509223608 82 146 0.0 2.6 0.00 0.00 0.00 38 1010.8
20260509223203 81 191 0.9 6.1 0.00 0.00 0.00 43 1010.8
20260509222802 81 198 0.9 6.1 0.00 0.00 0.00 41 1010.8
20260509222003 82 218 0.0 0.9 0.00 0.00 0.00 35 1010.8
20260509221603 82 213 0.0 1.7 0.00 0.00 0.00 35 1010.6
20260509221203 83 211 0.0 1.7 0.00 0.00 0.00 35 1010.7
20260509220802 84 201 0.0 1.7 0.00 0.00 0.00 36 1010.7
20260509220422 84 193 0.9 3.5 0.00 0.00 0.00 34 1010.6
20260509220004 84 192 0.9 3.5 0.00 0.00 0.00 32 1010.5
20260509215607 84 191 1.7 6.1 0.00 0.00 0.00 33 1010.6
20260509215204 84 195 1.7 6.1 0.00 0.00 0.00 32 1010.5
20260509214806 84 203 0.9 6.1 0.00 0.00 0.00 36 1010.6
20260509214404 83 225 0.9 2.6 0.00 0.00 0.00 34 1010.6
20260509214003 83 228 0.9 2.6 0.00 0.00 0.00 33 1010.5
20260509213602 83 221 0.9 2.6 0.00 0.00 0.00 35 1010.6
20260509213203 82 227 0.9 1.7 0.00 0.00 0.00 40 1010.7
20260509212803 82 237 0.0 2.6 0.00 0.00 0.00 37 1010.7
20260509212403 82 246 0.9 2.6 0.00 0.00 0.00 35 1010.7
20260509212003 82 245 0.9 3.5 0.00 0.00 0.00 36 1010.7
20260509211603 84 242 0.0 3.5 0.00 0.00 0.00 33 1010.7
20260509211203 84 216 0.0 3.5 0.00 0.00 0.00 32 1010.7
20260509210403 84 224 1.7 3.5 0.00 0.00 0.00 34 1010.8
20260509210003 83 211 1.7 3.5 0.00 0.00 0.00 31 1010.8
20260509205603 84 186 1.7 3.5 0.00 0.00 0.00 35 1010.9
20260509205203 84 174 1.7 3.5 0.00 0.00 0.00 30 1010.9
20260509204804 84 155 0.9 3.5 0.00 0.00 0.00 34 1011.0
20260509204403 83 186 0.9 3.5 0.00 0.00 0.00 32 1011.0
20260509203603 82 209 0.0 1.7 0.00 0.00 0.00 35 1011.0
20260509203203 82 73 0.0 0.9 0.00 0.00 0.00 36 1011.1
20260509202803 82 60 0.0 1.7 0.00 0.00 0.00 31 1011.1
20260509202403 82 4 0.9 5.2 0.00 0.00 0.00 31 1011.2
20260509202003 82 4 0.9 6.1 0.00 0.00 0.00 35 1011.2
20260509201603 83 323 1.7 6.1 0.00 0.00 0.00 31 1011.3
20260509200803 83 253 1.7 6.1 0.00 0.00 0.00 34 1011.3
20260509200403 83 230 1.7 5.2 0.00 0.00 0.00 34 1011.4
20260509200003 83 302 0.9 3.5 0.00 0.00 0.00 31 1011.4
20260509195603 84 12 0.9 3.5 0.00 0.00 0.00 35 1011.5
20260509194803 83 231 1.7 5.2 0.00 0.00 0.00 32 1011.5
20260509194402 84 240 0.9 5.2 0.00 0.00 0.00 35 1011.6
20260509194004 84 250 0.0 2.6 0.00 0.00 0.00 36 1011.6
20260509193603 84 249 0.0 2.6 0.00 0.00 0.00 35 1011.6
20260509193203 82 247 0.0 2.6 0.00 0.00 0.00 36 1011.6
20260509192803 82 264 0.0 2.6 0.00 0.00 0.00 36 1011.6
20260509192403 82 261 0.9 2.6 0.00 0.00 0.00 34 1011.7
20260509192004 83 248 0.9 2.6 0.00 0.00 0.00 37 1011.7
20260509191603 82 267 0.9 2.6 0.00 0.00 0.00 37 1011.7
20260509190803 83 294 0.9 6.1 0.00 0.00 0.00 34 1011.7
20260509190403 83 272 1.7 6.1 0.00 0.00 0.00 37 1011.7
20260509190003 83 274 1.7 6.1 0.00 0.00 0.00 33 1011.6
20260509185603 83 265 0.9 5.2 0.00 0.00 0.00 32 1011.7
20260509185203 83 255 0.9 5.2 0.00 0.00 0.00 33 1011.6
20260509184403 83 270 0.0 3.5 0.00 0.00 0.00 31 1011.8
20260509184005 82 274 0.9 2.6 0.00 0.00 0.00 35 1011.6
20260509183603 82 274 0.9 2.6 0.00 0.00 0.00 34 1011.6
20260509183203 82 279 0.9 3.5 0.00 0.00 0.00 34 1011.7
20260509182803 82 251 0.9 5.2 0.00 0.00 0.00 32 1011.7
20260509182003 83 263 0.9 5.2 0.00 0.00 0.00 34 1011.6
20260509181603 83 287 0.9 3.5 0.00 0.00 0.00 33 1011.7
20260509181203 83 301 0.0 3.5 0.00 0.00 0.00 33 1011.6
20260509180803 83 12 0.0 0.9 0.00 0.00 0.00 32 1011.7
20260509180403 83 355 0.0 2.6 0.00 0.00 0.00 35 1011.7
20260509180004 82 313 0.9 3.5 0.00 0.00 0.00 32 1011.8
20260509174803 81 284 0.9 6.1 0.00 0.00 0.00 35 1011.8
20260509174403 81 293 0.9 5.2 0.00 0.00 0.00 35 1011.8
20260509174003 82 291 0.9 5.2 0.00 0.00 0.00 35 1011.9
20260509173603 82 277 0.9 5.2 0.00 0.00 0.00 39 1011.9
20260509172804 81 236 0.9 7.0 0.00 0.00 0.00 41 1011.9
20260509172404 81 198 0.9 7.0 0.00 0.00 0.00 39 1012.0
20260509171603 81 212 0.9 6.1 0.00 0.00 0.00 42 1012.0
20260509171203 81 211 0.9 3.5 0.00 0.00 0.00 45 1012.0
20260509170803 80 200 0.9 5.2 0.00 0.00 0.00 41 1012.1
20260509170403 80 194 0.9 5.2 0.00 0.00 0.00 42 1012.1
20260509165603 79 207 0.9 3.5 0.00 0.00 0.00 46 1012.1
20260509165207 79 214 0.9 5.2 0.00 0.00 0.00 47 1012.1
20260509164802 78 220 0.9 5.2 0.00 0.00 0.00 45 1012.1
20260509164403 78 229 0.9 2.6 0.00 0.00 0.00 46 1012.1
20260509164003 78 213 0.9 5.2 0.00 0.00 0.00 49 1012.1
20260509163603 78 194 0.9 5.2 0.00 0.00 0.00 50 1012.2
20260509163204 77 208 0.9 3.5 0.00 0.00 0.00 54 1012.1
20260509162803 77 222 0.9 3.5 0.00 0.00 0.00 53 1012.1
20260509162403 77 216 0.9 3.5 0.00 0.00 0.00 57 1012.2
20260509162004 76 205 0.0 2.6 0.00 0.00 0.00 57 1012.2
20260509161604 76 251 0.9 2.6 0.00 0.00 0.00 58 1012.2
20260509161203 75 249 0.9 2.6 0.00 0.00 0.00 57 1012.2
20260509160803 75 234 0.9 3.5 0.00 0.00 0.00 61 1012.3
20260509160403 74 234 0.9 3.5 0.00 0.00 0.00 59 1012.3
20260509160004 74 259 0.9 6.1 0.00 0.00 0.00 60 1012.3
20260509155604 74 276 0.9 6.1 0.00 0.00 0.00 60 1012.3
20260509155203 73 263 0.0 1.7 0.00 0.00 0.00 63 1012.2
20260509154803 73 272 0.0 1.7 0.00 0.00 0.00 61 1012.2
20260509154403 72 267 0.0 2.6 0.00 0.00 0.00 66 1012.3
20260509154003 72 276 0.9 2.6 0.00 0.00 0.00 66 1012.2
20260509153603 71 282 0.9 2.6 0.00 0.00 0.00 67 1012.2
20260509153203 71 289 0.9 2.6 0.00 0.00 0.00 69 1012.2
20260509152403 70 285 0.9 3.5 0.00 0.00 0.00 69 1012.2
20260509152004 69 286 0.9 3.5 0.00 0.00 0.00 71 1012.2
20260509151604 69 272 0.9 3.5 0.00 0.00 0.00 72 1012.1
20260509150803 68 261 0.0 2.6 0.00 0.00 0.00 74 1012.2
20260509150403 68 269 0.9 2.6 0.00 0.00 0.00 75 1012.1
20260509150003 67 267 0.9 2.6 0.00 0.00 0.00 77 1012.2
20260509145603 67 263 0.9 2.6 0.00 0.00 0.00 77 1012.2
20260509144803 66 275 0.9 2.6 0.00 0.00 0.00 81 1012.2
20260509144404 65 279 0.9 2.6 0.00 0.00 0.00 80 1012.2
20260509144004 64 279 0.9 2.6 0.00 0.00 0.00 81 1012.3
20260509143603 64 277 0.9 2.6 0.00 0.00 0.00 82 1012.4
20260509143203 64 282 0.9 5.2 0.00 0.00 0.00 82 1012.3
20260509142403 63 282 0.9 5.2 0.00 0.00 0.00 84 1012.2
20260509142003 63 266 0.9 3.5 0.00 0.00 0.00 86 1012.2
20260509141606 62 262 0.9 3.5 0.00 0.00 0.00 87 1012.1
20260509141203 62 264 0.9 3.5 0.00 0.00 0.00 86 1012.0
20260509140403 62 257 0.9 3.5 0.00 0.00 0.00 87 1012.0
20260509140003 62 252 0.9 3.5 0.00 0.00 0.00 89 1011.9
20260509135603 61 248 0.9 2.6 0.00 0.00 0.00 88 1011.8
20260509135203 61 231 0.9 2.6 0.00 0.00 0.00 90 1011.8
20260509134805 60 229 0.9 2.6 0.00 0.00 0.00 91 1011.8
20260509134403 60 232 0.0 2.6 0.00 0.00 0.00 91 1011.8
20260509134003 59 262 0.0 1.7 0.00 0.00 0.00 93 1011.8
20260509133603 59 257 0.0 0.9 0.00 0.00 0.00 96 1011.7
20260509133203 58 0 0.0 0.0 0.00 0.00 0.00 96 1011.7
20260509132403 57 0 0.0 0.0 0.00 0.00 0.00 98 1011.6
20260509132003 57 0 0.0 0.0 0.00 0.00 0.00 98 1011.6
20260509131603 57 0 0.0 0.0 0.00 0.00 0.00 98 1011.5
20260509131203 56 0 0.0 0.0 0.00 0.00 0.00 98 1011.6
20260509130003 55 0 0.0 0.0 0.00 0.00 0.00 98 1011.5
20260509125603 54 288 0.0 0.9 0.00 0.00 0.00 98 1011.5
20260509125203 54 288 0.0 0.9 0.00 0.00 0.00 98 1011.5
20260509124404 52 0 0.0 0.0 0.00 0.00 0.00 98 1011.3
20260509124004 52 0 0.0 0.0 0.00 0.00 0.00 98 1011.3
20260509123604 52 0 0.0 0.0 0.00 0.00 0.00 98 1011.3
20260509123204 51 0 0.0 0.0 0.00 0.00 0.00 98 1011.3
20260509122804 51 0 0.0 0.0 0.00 0.00 0.00 98 1011.3
20260509122404 50 0 0.0 0.0 0.00 0.00 0.00 98 1011.3
20260509122004 50 0 0.0 0.0 0.00 0.00 0.00 98 1011.2
20260509121603 49 0 0.0 0.0 0.00 0.00 0.00 98 1011.1
20260509121203 49 0 0.0 0.0 0.00 0.00 0.00 98 1011.1
20260509120803 48 0 0.0 0.0 0.00 0.00 0.00 98 1011.0
20260509120403 48 0 0.0 0.0 0.00 0.00 0.00 97 1011.0
20260509120004 48 0 0.0 0.0 0.00 0.00 0.00 97 1011.0
20260509115604 47 0 0.0 0.0 0.00 0.00 0.00 97 1011.0
20260509115204 47 0 0.0 0.0 0.00 0.00 0.00 97 1011.0
20260509114803 47 0 0.0 0.0 0.00 0.00 0.00 97 1010.9
20260509114403 47 0 0.0 0.0 0.00 0.00 0.00 96 1010.8
20260509114004 47 0 0.0 0.0 0.00 0.00 0.00 96 1010.7
20260509113203 48 292 0.0 0.9 0.00 0.00 0.00 96 1010.7
20260509112803 48 292 0.0 0.9 0.00 0.00 0.00 96 1010.5
20260509112404 48 292 0.0 0.9 0.00 0.00 0.00 97 1010.4
20260509112003 48 292 0.0 0.9 0.00 0.00 0.00 97 1010.5
20260509111604 48 0 0.0 0.0 0.00 0.00 0.00 97 1010.5
20260509111203 48 0 0.0 0.0 0.00 0.00 0.00 97 1010.4
20260509110803 48 0 0.0 0.0 0.00 0.00 0.00 97 1010.5
20260509110004 48 0 0.0 0.0 0.00 0.00 0.00 97 1010.3
20260509105603 48 0 0.0 0.0 0.00 0.00 0.00 96 1010.4